Jacksonville, FL

1:06 PM EST on December 09, 2016 (GMT -0500)
Jacksonville International

Weather History for KJAX - March, 2014

Change the Weather History Date:

Monday, March 10, 2014

  Actual Average Record
Temperature  
Mean Temperature 65 °F 61 °F  
Max Temperature 80 °F 73 °F 91 °F (1974)
Min Temperature 49 °F 49 °F 26 °F (1932)
Degree Days  
Heating Degree Days 0 6  
Month to date heating degree days 93 65  
Since 1 July heating degree days 1170 1198  
Cooling Degree Days 0 2  
Month to date cooling degree days 1 12  
Year to date cooling degree days 31 41  
Growing Degree Days 14 (Base 50)    
Moisture  
Dew Point 50 °F    
Average Humidity 68    
Maximum Humidity 100    
Minimum Humidity 35    
Precipitation  
Precipitation 0.00 in 0.13 in 1.69 in (1980)
Month to date precipitation 1.15 1.38  
Year to date precipitation 10.86 7.87  
Snow  
Snow 0.00 in 0.00 in 0.00 in (2002)
Month to date snowfall 0.0 0.0  
Since 1 July snowfall 0.0 T  
Snow Depth 0.00 in    
Sea Level Pressure  
Sea Level Pressure 30.04 in    
Wind  
Wind Speed 6 mph (WSW)    
Max Wind Speed 15 mph    
Max Gust Speed 19 mph    
Visibility 10 miles    
Events      
T = Trace of Precipitation, MM = Missing Value Source: NWS Daily Summary

Daily Weather History Graph

Daily Weather History Graph

Search for Another Location

Airport or City:

Trip Planner

Search our weather history database for the weather conditions in past years. The results will help you decide how hot, cold, wet, or windy it might be!

Date:

Astronomy

Mar. 10, 2014 Rise Set
Actual Time 7:42 AM EDT 7:31 PM EDT
Civil Twilight 7:18 AM EDT 7:55 PM EDT
Nautical Twilight 6:50 AM EDT 8:23 PM EDT
Astronomical Twilight 6:22 AM EDT 8:51 PM EDT
Moon 2:30 PM EDT (3/10) 3:36 AM EDT (3/10)
Length of Visible Light 12h 37m
Length of Day
11h 49m
Waxing Gibbous, 70% of the Moon is Illuminated
Mar 10
Waxing Gibbous
Mar 16
Full
Mar 23
Last Quarter
Mar 30
New
Apr 7
First Quarter

Hourly Weather History & Observations

Time (EDT) Temp. Dew Point Humidity Pressure Visibility Wind Dir Wind Speed Gust Speed Precip Events Conditions
12:56 AM 55.0 °F 51.1 °F 86% 30.12 in 10.0 mi West 6.9 mph - N/A   Clear
1:56 AM 55.9 °F 51.1 °F 84% 30.12 in 10.0 mi West 8.1 mph - N/A   Mostly Cloudy
2:56 AM 55.9 °F 51.1 °F 84% 30.09 in 10.0 mi West 6.9 mph - N/A   Mostly Cloudy
3:56 AM 55.0 °F 51.1 °F 86% 30.08 in 10.0 mi West 6.9 mph - N/A   Mostly Cloudy
4:56 AM 55.0 °F 51.1 °F 86% 30.07 in 10.0 mi WSW 4.6 mph - N/A   Mostly Cloudy
5:56 AM 54.0 °F 50.0 °F 86% 30.07 in 10.0 mi WSW 3.5 mph - N/A   Scattered Clouds
6:56 AM 52.0 °F 50.0 °F 93% 30.08 in 10.0 mi Calm Calm - N/A   Partly Cloudy
7:56 AM 48.9 °F 48.9 °F 100% 30.09 in 10.0 mi SW 3.5 mph - N/A   Scattered Clouds
8:56 AM 57.0 °F 52.0 °F 83% 30.10 in 10.0 mi NNW 6.9 mph - N/A   Scattered Clouds
9:56 AM 63.0 °F 51.1 °F 65% 30.11 in 10.0 mi NNW 6.9 mph - N/A   Scattered Clouds
10:56 AM 69.1 °F 48.9 °F 49% 30.11 in 10.0 mi Variable 5.8 mph - N/A   Scattered Clouds
11:56 AM 73.0 °F 46.9 °F 39% 30.10 in 10.0 mi North 5.8 mph - N/A   Scattered Clouds
12:56 PM 73.9 °F 46.0 °F 37% 30.08 in 10.0 mi WSW 4.6 mph - N/A   Partly Cloudy
1:56 PM 75.9 °F 46.9 °F 36% 30.04 in 10.0 mi SW 6.9 mph - N/A   Partly Cloudy
2:56 PM 78.1 °F 48.0 °F 35% 30.00 in 10.0 mi West 6.9 mph - N/A   Partly Cloudy
3:56 PM 79.0 °F 48.0 °F 34% 29.98 in 10.0 mi West 11.5 mph - N/A   Partly Cloudy
4:56 PM 79.0 °F 48.0 °F 34% 29.96 in 10.0 mi West 9.2 mph - N/A   Partly Cloudy
5:56 PM 78.1 °F 48.0 °F 35% 29.95 in 10.0 mi West 10.4 mph - N/A   Clear
6:56 PM 75.9 °F 50.0 °F 40% 29.95 in 10.0 mi West 6.9 mph - N/A   Clear
7:56 PM 66.0 °F 54.0 °F 65% 29.95 in 10.0 mi SSW 4.6 mph - N/A   Clear
8:56 PM 64.0 °F 51.1 °F 63% 29.97 in 10.0 mi SE 5.8 mph - N/A   Clear
9:56 PM 61.0 °F 52.0 °F 72% 29.99 in 10.0 mi SSE 4.6 mph - N/A   Clear
10:56 PM 57.9 °F 52.0 °F 81% 29.99 in 10.0 mi SW 5.8 mph - N/A   Clear
11:56 PM 59.0 °F 52.0 °F 78% 29.99 in 10.0 mi SW 6.9 mph - N/A   Clear